This is the latest recevied weather packets stored in our database for station/object WD7OO. If no packets are shown the sender has not sent any weather packets the latest 10 day(s).
| Time | Temp. | Humidity | Pressure | Rain* | Wind** | Luminosity | Snow |
|---|---|---|---|---|---|---|---|
| 1777485748 | 12.22° C | 89% | 1011.9 hPa | 0 mm | - | 299 W/m² | - |
| 1777485444 | 12.22° C | 91% | 1011.9 hPa | 0 mm | - | 404 W/m² | - |
| 1777484837 | 12.22° C | 95% | 1011.7 hPa | 0 mm | - | 318 W/m² | - |
| 1777484231 | 11.67° C | 97% | 1011.8 hPa | 0 mm | - | 293 W/m² | - |
| 1777483318 | 11.11° C | 97% | 1011.9 hPa | 0 mm | - | 97 W/m² | - |
| 1777482407 | 11.67° C | 95% | 1011.9 hPa | 1.78 mm | - | 42 W/m² | - |
| 1777482105 | 11.67° C | 94% | 1012.1 hPa | 0 mm | - | 17 W/m² | - |
| 1777481196 | 11.67° C | 94% | 1011.8 hPa | 0 mm | - | 97 W/m² | - |
| 1777480589 | 11.67° C | 94% | 1011.8 hPa | 0 mm | - | 125 W/m² | - |
| 1777479982 | 11.11° C | 96% | 1012.1 hPa | 0 mm | - | 142 W/m² | - |
| 1777476647 | 11.67° C | 96% | 1012 hPa | 0 mm | - | 73 W/m² | - |
| 1777476039 | 11.67° C | 96% | 1012 hPa | 0 mm | - | 84 W/m² | - |
| 1777474519 | 11.67° C | 95% | 1012 hPa | 0 mm | - | 92 W/m² | - |
| 1777473003 | 11.11° C | 97% | 1012 hPa | 0 mm | - | 54 W/m² | - |
| 1777471182 | 11.11° C | 99% | 1012.1 hPa | 1.27 mm | - | 105 W/m² | - |
| 1777469968 | 10.56° C | 99% | 1012.4 hPa | 0 mm | - | 104 W/m² | - |
| 1777469664 | 10.56° C | 99% | 1012.6 hPa | 0 mm | - | 54 W/m² | - |
| 1777469359 | 10.56° C | 99% | 1012.5 hPa | 0 mm | - | 38 W/m² | - |
| 1777468750 | 10.56° C | 99% | 1012.6 hPa | 0 mm | - | 65 W/m² | - |
| 1777468446 | 10.56° C | 99% | 1012.3 hPa | 0 mm | - | 53 W/m² | - |
| 1777468143 | 10.56° C | 99% | 1012.4 hPa | 0 mm | - | 78 W/m² | - |
| 1777467534 | 10.56° C | 99% | 1012.2 hPa | 0 mm | - | 88 W/m² | - |
| 1777467230 | 10.56° C | 99% | 1012.1 hPa | 0 mm | - | 90 W/m² | - |
| 1777466625 | 10.56° C | 99% | 1012.2 hPa | 0 mm | - | 73 W/m² | - |
| 1777466321 | 10.56° C | 99% | 1012.3 hPa | 0 mm | - | 83 W/m² | - |
* Rain latest hour (hover to see other rain measurements)
** Current wind speed in m/s (hover to see current wind gust speed)